DateTimeUTC,F1_A11,F1_S11,BsB_S11,BsG_S11,BsR_S11,BbsB_S11,BbsG_S11,BbsR_S11,BaB_A11,BaG_A11,BaR_A11,Tu_S11,T_S11,Uu_S11,U_S11,P_S11,T1_A11
2021-11-13T22:00:00Z,00000200,21000000,,,,,,,-000.08,-000.03,0000.25,19.5,26.5,,00.0,0640.2,31.0
2021-11-13T22:01:00Z,00000200,21000000,,,,,,,0000.32,0000.43,-000.41,19.5,26.5,,00.0,0640.3,31.0
2021-11-13T22:02:00Z,00000200,21000000,,,,,,,0000.12,-000.01,0000.34,19.5,26.5,,00.0,0640.3,31.1
2021-11-13T22:03:00Z,00000200,61000000,,,,,,,0000.05,-000.35,0000.22,19.5,26.5,,00.0,0640.3,31.0
2021-11-13T22:04:00Z,00000200,41000000,0000.80,0000.15,0000.18,0000.27,0000.21,-000.29,0000.31,0000.36,0000.04,19.9,26.4,,00.0,0641.1,31.1
2021-11-13T22:05:00Z,00000200,01000000,-000.58,0000.28,-000.28,-000.42,-000.09,-000.04,-000.43,0000.02,-000.23,19.9,26.4,,00.0,0641.2,31.1
2021-11-13T22:06:00Z,00000200,01000000,0000.43,-000.01,-000.02,-000.01,-000.25,0000.16,0000.03,0000.25,-000.05,20.0,26.4,,00.0,0641.2,31.1
2021-11-13T22:07:00Z,00000200,01000000,0000.48,-000.07,-000.12,0000.16,-000.05,-000.08,-000.04,-000.41,0000.20,20.0,26.4,,00.0,0641.2,31.1
2021-11-13T22:08:00Z,00000200,01000000,0001.34,0000.20,0000.14,0000.35,0000.02,0000.29,0000.29,0000.39,0000.10,20.1,26.4,,00.0,0641.2,31.1
2021-11-13T22:09:00Z,00000200,01000000,0000.77,-000.04,0000.07,0000.21,-000.23,0000.26,-000.18,-000.43,-000.37,20.1,26.4,,00.0,0641.2,31.1
2021-11-13T22:10:00Z,00000200,01000000,0000.68,0000.02,0000.17,0000.12,-000.25,0000.17,-000.06,0000.27,0000.09,20.1,26.4,,00.0,0641.2,31.1
2021-11-13T22:11:00Z,00000200,01000000,0000.04,0000.18,-000.21,-000.27,-000.28,0000.02,0000.25,0000.12,0000.14,20.0,26.4,,00.0,0641.1,31.1
2021-11-13T22:12:00Z,00000200,01000000,0000.60,0000.26,0000.05,0000.32,0000.36,-000.12,0000.01,-000.23,0000.13,19.9,26.4,,00.0,0641.1,31.0
2021-11-13T22:13:00Z,00000200,01000000,0000.65,0000.04,0000.13,0000.97,0000.06,0000.12,-000.04,-000.17,-000.25,19.9,26.3,,00.0,0641.2,31.0
2021-11-13T22:14:00Z,00000200,01000000,0000.72,-000.10,0000.02,0000.70,-000.08,-000.11,0000.24,0000.14,0000.16,19.9,26.3,,00.0,0641.2,31.0
2021-11-13T22:15:00Z,00000200,01000000,0001.01,0000.61,0000.10,0000.05,-000.11,-000.03,-000.04,0000.24,0000.22,19.9,26.3,,00.0,0641.2,31.0
2021-11-13T22:16:00Z,00000200,01000000,0000.29,-000.13,-000.07,0000.24,-000.22,0000.12,0000.20,-000.08,0000.06,19.9,26.3,,00.0,0641.1,31.1
2021-11-13T22:17:00Z,00000200,01000000,0000.17,0000.48,0000.30,-000.37,-000.18,0000.23,-000.59,-000.03,-000.08,20.0,26.3,,00.0,0641.1,31.1
2021-11-13T22:18:00Z,00000200,01000000,0000.35,0000.26,0000.06,0000.33,-000.14,0000.25,0000.98,0000.38,-000.20,20.0,26.4,,00.0,0641.1,31.1
2021-11-13T22:19:00Z,00000200,01000000,0000.63,-000.02,0000.04,0000.22,-000.14,0000.22,-000.13,0000.11,0000.63,20.0,26.4,,00.0,0641.2,31.1
2021-11-13T22:20:00Z,00000200,01000000,0000.45,-000.03,-000.40,-000.15,-000.23,0000.10,0000.08,0000.38,0000.14,20.1,26.4,,00.0,0641.2,31.1
2021-11-13T22:21:00Z,00000200,01000000,-000.04,0000.40,0000.01,0000.37,-000.21,-000.00,-000.07,-000.35,-000.33,20.1,26.4,,00.0,0641.2,31.1
2021-11-13T22:22:00Z,00000200,01000000,0000.68,-000.13,-000.02,-000.08,-000.27,-000.03,0000.10,0000.21,0000.45,20.1,26.4,,00.0,0641.1,31.1
2021-11-13T22:23:00Z,00000200,01000000,0001.32,0000.02,0000.06,0000.32,0000.03,0000.43,0000.26,0000.01,-000.06,20.2,26.4,,00.0,0641.1,31.1
2021-11-13T22:24:00Z,00000200,01000000,0000.23,0000.25,0000.15,-000.17,-000.06,0000.22,-000.18,0000.13,-000.03,20.2,26.4,,00.0,0641.0,31.1
2021-11-13T22:25:00Z,00000200,01000000,0000.21,-000.06,-000.17,-000.09,0000.04,-000.04,0000.08,0000.20,0000.18,20.2,26.4,,00.0,0641.0,31.1
2021-11-13T22:26:00Z,00000200,01000000,-000.11,0000.24,-000.00,0000.02,0000.21,0000.08,0000.22,0000.02,-000.15,20.2,26.5,,00.0,0640.9,31.1
2021-11-13T22:27:00Z,00000200,01000000,0000.53,0000.20,0000.12,-000.15,-000.23,0000.30,0000.48,-000.10,0000.31,20.1,26.4,,00.0,0640.8,31.1
2021-11-13T22:28:00Z,00000200,01000000,0001.35,0000.11,-000.19,0000.70,-000.32,-000.14,-000.35,0000.26,-000.22,20.1,26.4,,00.0,0640.8,31.1
2021-11-13T22:29:00Z,00000200,01000000,0000.41,0000.11,-000.01,-000.05,-000.18,0000.43,-000.11,-000.10,0000.17,20.1,26.4,,00.0,0640.8,31.1
2021-11-13T22:30:00Z,00000200,01000000,0000.44,0000.54,0000.32,0000.47,-000.12,0000.32,0000.29,0000.33,0000.38,20.1,26.4,,00.0,0640.8,31.1
2021-11-13T22:31:00Z,00000200,01000000,-000.07,0000.25,0000.12,0001.10,-000.11,0000.18,0000.30,0000.07,0000.16,20.1,26.4,,00.0,0640.7,31.1
2021-11-13T22:32:00Z,00000200,01000000,0000.08,0000.05,-000.12,0000.11,-000.24,-000.08,-000.07,-000.38,-000.19,20.2,26.4,,00.0,0640.7,31.1
2021-11-13T22:33:00Z,00000200,01000000,0001.03,0000.20,-000.08,-000.34,-000.12,0000.04,0000.04,0000.94,-000.00,20.2,26.4,,00.0,0640.7,31.1
2021-11-13T22:34:00Z,00000200,01000000,0000.48,0000.28,-000.00,-000.41,-000.28,0000.43,0000.29,-000.10,0000.37,20.2,26.5,,00.0,0640.7,31.1
2021-11-13T22:35:00Z,00000200,01000000,0000.56,0000.42,-000.08,0000.22,-000.09,0000.32,0000.16,0000.43,-000.11,20.3,26.4,,00.0,0640.6,31.1
2021-11-13T22:36:00Z,00000200,01000000,0000.19,-000.07,-000.01,0000.28,0000.00,0000.25,-000.19,-000.36,0000.09,20.3,26.5,,00.0,0640.6,31.1
2021-11-13T22:37:00Z,00000200,01000000,-000.36,0000.43,-000.02,-000.12,0000.01,0000.13,0000.57,0000.34,0000.24,20.3,26.5,,00.0,0640.5,31.1
2021-11-13T22:38:00Z,00000200,01000000,0000.09,0000.08,-000.37,0000.21,0000.19,-000.38,-000.12,0000.21,0000.13,20.4,26.5,,00.0,0640.4,31.1
2021-11-13T22:39:00Z,00000200,01000000,0000.54,0000.23,-000.04,-000.07,0000.08,0000.12,0000.29,-000.24,0000.01,20.4,26.5,,00.0,0640.4,31.1
2021-11-13T22:40:00Z,00000200,01000000,0001.50,-000.02,0000.24,0000.64,-000.26,0000.16,0000.29,0000.68,0000.69,20.4,26.6,,00.0,0640.4,31.1
2021-11-13T22:41:00Z,00000200,01000000,0000.39,-000.01,0000.04,-000.36,-000.17,-000.06,-000.25,-000.21,-000.10,20.4,26.6,,00.0,0640.4,31.1
2021-11-13T22:42:00Z,00000200,01000000,0000.55,0000.13,-000.08,0000.24,0000.07,0000.01,0000.13,0000.19,-000.14,20.3,26.6,,00.0,0640.4,31.1
2021-11-13T22:43:00Z,00000200,01000000,0000.52,0000.21,0000.18,0000.70,0000.03,0000.24,0000.20,0000.22,0000.21,20.3,26.5,,00.0,0640.4,31.1
2021-11-13T22:44:00Z,00000200,01000000,0000.47,-000.02,0000.13,-000.16,-000.10,0000.36,0000.12,-000.36,0000.21,20.3,26.5,,00.0,0640.3,31.1
2021-11-13T22:45:00Z,00000200,01000000,0001.07,-000.14,-000.22,-000.43,0000.15,-000.13,0000.17,0000.07,-000.22,20.3,26.5,,00.0,0640.2,31.1
2021-11-13T22:46:00Z,00000200,01000000,-000.19,0000.05,-000.20,0000.22,-000.25,-000.32,0000.09,0000.32,0000.53,20.3,26.5,,00.0,0640.2,31.1
2021-11-13T22:47:00Z,00000200,01000000,0000.67,0000.18,-000.24,0000.13,-000.10,0000.26,0000.36,0000.39,-000.03,20.4,26.6,,00.0,0640.1,31.1
2021-11-13T22:48:00Z,00000200,01000000,0000.59,0000.37,-000.13,-000.20,-000.10,-000.00,-000.19,0000.37,0000.40,20.4,26.6,,00.0,0640.2,31.1
2021-11-13T22:49:00Z,00000200,01000000,0000.93,0000.23,-000.19,0001.13,0000.19,-000.19,0000.28,-000.33,-000.17,20.4,26.6,,00.0,0640.1,31.1
2021-11-13T22:50:00Z,00000200,01000000,0001.11,0000.34,-000.09,-000.21,0000.17,0000.37,0000.29,0000.39,0000.11,20.4,26.6,,00.0,0640.0,31.1
2021-11-13T22:51:00Z,00000200,01000000,0000.79,-000.06,-000.05,0000.02,-000.44,-000.34,0000.29,0000.17,0000.35,20.5,26.6,,00.0,0640.0,31.1
2021-11-13T22:52:00Z,00000200,01000000,0000.96,0000.26,0000.36,0000.06,-000.09,0000.40,-000.25,-000.13,0000.16,20.5,26.6,,00.0,0640.0,31.1
2021-11-13T22:53:00Z,00000200,01000000,0000.64,-000.01,0000.11,0000.15,0000.21,0000.16,0000.42,0000.35,-000.02,20.6,26.7,,00.0,0639.9,31.1
2021-11-13T22:54:00Z,00000200,01000000,0000.23,0000.29,-000.29,0000.08,-000.21,-000.07,0000.01,0000.29,0000.27,20.6,26.7,,00.0,0639.9,31.1
2021-11-13T22:55:00Z,00000200,01000000,0000.24,0000.07,0000.05,-000.30,-000.03,0000.24,0000.25,0000.22,-000.08,20.5,26.7,,00.0,0639.7,31.1
2021-11-13T22:56:00Z,00000200,01000000,0000.86,0000.04,0000.05,0000.16,-000.10,0000.32,0000.19,-000.21,0000.25,20.5,26.7,,00.0,0639.7,31.1
2021-11-13T22:57:00Z,00000200,41000000,,,,,,,-000.74,-000.35,-000.66,20.5,26.7,,00.0,0639.5,31.1
2021-11-13T22:58:00Z,00000200,61000000,,,,,,,0000.19,0000.42,0000.01,20.1,26.7,,00.0,0638.6,31.1
2021-11-13T22:59:00Z,00000200,21000000,,,,,,,0000.43,-000.14,0000.09,20.1,26.8,,00.0,0638.6,31.1
